280  
NZUS93 KARX 270710  
HRRWXR  
 
CURRENT HOURLY OBSERVATIONS ACROSS  
MUCH OF THE UPPER MISSISSIPPI VALLEY  
NATIONAL WEATHER SERVICE LA CROSSE WI  
200 AM CDT WED MAY 27 2015  
 
   
..SOUTHEAST MINNESOTA
 
 
 
CITY SKY/WX TMP DP RH WIND PRES REMARKS  
ROCHESTER LGT RAIN 57 55 93 W9 29.85S  
ROCHESTER/MAYO CLOUDY 57 57 100 W8 29.85R  
WINONA DRIZZLE 59 55 88 W5 29.82R  
AUSTIN DRIZZLE 57 55 94 W7 29.85S  
ALBERT LEA CLOUDY 57 57 100 CALM 29.86S FOG  
DODGE CENTER DRIZZLE 57 55 94 W9 29.85R  
PRESTON CLOUDY 56 55 94 W9 29.84S  
OWATONNA CLOUDY 57 55 94 W5 29.85S FOG  
FARIBAULT CLOUDY 55 55 100 SW3 29.85S FOG  

 
   
..ELSEWHERE IN MINNESOTA
 
 
 
CITY SKY/WX TMP DP RH WIND PRES REMARKS  
MINNEAPOLIS CLOUDY 57 55 93 W3 29.83R  
INTNL FALLS PTCLDY 55 51 86 CALM 29.73F  
DULUTH CLOUDY 54 50 86 CALM 29.78S  
RED WING LGT RAIN 57 55 94 W6 29.82R  
REDWOOD FALLS MOCLDY 55 53 93 SW6 29.85R  
MANKATO CLOUDY 55 54 94 W6 29.85S  
WORTHINGTON MOCLDY 55 52 88 SW7 29.90S  
FAIRMONT CLOUDY 57 52 82 W9 29.88R  

 
   
..SOUTHWEST WISCONSIN
 
 
 
CITY SKY/WX TMP DP RH WIND PRES REMARKS  
LA CROSSE CLOUDY 61 58 90 W8 29.80R  
PRAIRIE DU CHI CLOUDY 61 57 88 CALM 29.82R  
BOSCOBEL MOCLDY 60 58 92 S5 29.81S  
LONE ROCK CLOUDY 60 58 92 CALM 29.81R  
PLATTEVILLE CLOUDY 60 59 98 SW8 29.83R  
FORT MC COY DRIZZLE 59 58 96 SW3 29.80R  
CAMP DOUGLAS MOCLDY N/A N/A N/A W10 29.77R  
VIROQUA CLOUDY 58 58 100 W8 29.82R  
WIS DELLS MOCLDY 59 56 91 W7 29.79R  

 
   
..ELSEWHERE IN WISCONSIN
 
 
 
CITY SKY/WX TMP DP RH WIND PRES REMARKS  
MILWAUKEE MOCLDY 65 60 84 SW10 29.80R  
MADISON CLEAR 61 57 87 VRB6 29.79S  
GREEN BAY CLOUDY 65 59 81 SW18G32 29.64R  
EAU CLAIRE LGT RAIN 56 54 93 W6 29.79R  
BLACK RVR FLS LGT RAIN 59 59 100 W6 29.79R  
MEDFORD DRIZZLE 54 53 97 NW12 29.74R  
WAUSAU CLOUDY 58 56 93 W14 29.68R  
WIS RAPIDS CLOUDY 60 56 86 W12G20 29.75R  
MARSHFIELD LGT RAIN 58 54 86 W14G23 29.75R  
RICE LAKE DRIZZLE 55 53 94 W6 29.81R  

 
   
..NORTHEAST IOWA
 
 
 
CITY SKY/WX TMP DP RH WIND PRES REMARKS  
DECORAH CLOUDY 59 57 94 CALM 29.83S  
MASON CITY LGT RAIN 57 56 96 W7 29.89R  
CHARLES CITY CLOUDY 59 59 100 W9 29.86S  
OELWEIN DRIZZLE 61 59 94 W10 29.85S  

 
   
..ELSEWHERE IN IOWA
 
 
 
CITY SKY/WX TMP DP RH WIND PRES REMARKS  
DES MOINES MOCLDY 60 57 89 W6 29.89R  
IOWA CITY CLEAR 61 59 93 W8 29.87S  
FORT DODGE CLOUDY 57 54 88 W3 29.90S  

 
   
..NORTHERN ILLINOIS
 
 
 
CITY SKY/WX TMP DP RH WIND PRES REMARKS  
CHICAGO-OHARE CLOUDY 67 61 81 SW9 29.83F  
CHICAGO-MIDWAY MOCLDY 68 63 84 SW14 29.84S  
MOLINE PTCLDY 63 59 87 SW9 29.85S  
ROCKFORD MOCLDY 64 60 87 SW6 29.84S  
PEORIA PTCLDY 70 61 73 SW10 29.90S  

 
 
NOTE: "FAIR" INDICATES FEW OR NO CLOUDS BELOW 12,000 FEET WITH NO  
SIGNIFICANT WEATHER AND/OR OBSTRUCTIONS TO VISIBILITY. WIND  
SPEEDS ARE IN MILES-PER-HOUR.  
 
CLICK HERE TO GO TO PREVIOUS BULLETINS.

The Nexlab WI Page
The Nexlab IA Page
The Nexlab MN Page Main Text Page